Time,TemperatureF,DewpointF,PressureIn,WindDirection,WindDirectionDegrees,WindSpeedMPH,WindSpeedGustMPH,Humidity,HourlyPrecipIn,Conditions,Clouds,dailyrainin,SoftwareType,DateUTC
2013-10-06 00:00:00,53.8,28.7,30.13,NW,304,0.0,6.9,38,0.00,,---,0.00,VWS V12.07,2013-10-06 07:00:00,
2013-10-06 00:02:00,52.9,29.2,30.13,NW,304,0.0,6.9,40,0.00,,---,0.00,VWS V12.07,2013-10-06 07:02:00,
2013-10-06 00:07:00,52.6,29.1,30.13,NW,304,0.0,6.9,40,0.00,,---,0.00,VWS V12.07,2013-10-06 07:07:00,
2013-10-06 00:12:00,52.4,28.9,30.13,NW,304,0.0,6.9,40,0.00,,---,0.00,VWS V12.07,2013-10-06 07:12:00,
2013-10-06 00:17:00,52.3,29.0,30.13,NW,304,0.0,6.9,40,0.00,,---,0.00,VWS V12.07,2013-10-06 07:17:00,
2013-10-06 00:22:00,52.1,28.6,30.13,NW,304,0.0,6.9,40,0.00,,---,0.00,VWS V12.07,2013-10-06 07:22:00,
2013-10-06 00:28:00,52.5,28.5,30.13,WNW,294,0.0,6.9,39,0.00,,---,0.00,VWS V12.07,2013-10-06 07:28:00,
2013-10-06 00:30:00,52.4,28.6,30.13,WNW,294,0.0,6.4,40,0.00,,---,0.00,VWS V12.07,2013-10-06 07:30:00,
2013-10-06 00:33:00,53.0,28.9,30.13,WNW,294,0.0,6.9,39,0.00,,---,0.00,VWS V12.07,2013-10-06 07:33:00,
2013-10-06 00:38:00,52.6,28.8,30.14,WNW,294,0.0,6.9,40,0.00,,---,0.00,VWS V12.07,2013-10-06 07:38:00,
2013-10-06 00:43:00,51.7,28.2,30.14,WNW,294,0.0,6.9,40,0.00,,---,0.00,VWS V12.07,2013-10-06 07:43:00,
2013-10-06 00:48:00,51.1,27.9,30.14,WNW,294,0.0,0.0,40,0.00,,---,0.00,VWS V12.07,2013-10-06 07:48:00,
2013-10-06 00:53:00,50.6,27.5,30.14,WNW,294,0.0,0.0,41,0.00,,---,0.00,VWS V12.07,2013-10-06 07:53:00,
2013-10-06 00:58:00,50.3,27.7,30.14,WNW,294,0.0,0.0,41,0.00,,---,0.00,VWS V12.07,2013-10-06 07:58:00,
2013-10-06 01:00:00,50.4,27.7,30.14,WNW,294,0.0,0.0,41,0.00,,---,0.00,VWS V12.07,2013-10-06 08:00:00,
2013-10-06 01:03:00,49.9,27.7,30.14,WNW,294,0.0,0.0,42,0.00,,---,0.00,VWS V12.07,2013-10-06 08:03:00,
2013-10-06 01:08:00,49.7,27.8,30.15,WNW,294,0.0,0.0,42,0.00,,---,0.00,VWS V12.07,2013-10-06 08:08:00,
2013-10-06 01:13:00,49.4,27.9,30.15,WNW,294,0.0,0.0,43,0.00,,---,0.00,VWS V12.07,2013-10-06 08:13:00,
2013-10-06 01:18:00,49.3,27.7,30.15,WNW,294,0.0,0.0,43,0.00,,---,0.00,VWS V12.07,2013-10-06 08:18:00,
2013-10-06 01:23:00,49.3,27.9,30.15,WNW,294,0.0,0.0,43,0.00,,---,0.00,VWS V12.07,2013-10-06 08:23:00,
2013-10-06 01:28:00,49.1,27.3,30.15,WNW,294,0.0,0.0,42,0.00,,---,0.00,VWS V12.07,2013-10-06 08:28:00,
2013-10-06 01:30:00,49.2,27.5,30.15,WNW,294,0.0,0.0,43,0.00,,---,0.00,VWS V12.07,2013-10-06 08:30:00,
2013-10-06 01:33:00,49.0,27.8,30.15,WNW,294,0.0,0.0,44,0.00,,---,0.00,VWS V12.07,2013-10-06 08:33:00,
2013-10-06 01:38:00,48.8,27.9,30.15,WNW,294,0.0,0.0,44,0.00,,---,0.00,VWS V12.07,2013-10-06 08:38:00,
2013-10-06 01:43:00,48.5,28.0,30.15,WNW,294,0.0,0.0,45,0.00,,---,0.00,VWS V12.07,2013-10-06 08:43:00,
2013-10-06 01:48:00,48.2,28.2,30.14,WNW,294,0.0,0.0,46,0.00,,---,0.00,VWS V12.07,2013-10-06 08:48:00,
2013-10-06 01:53:00,47.5,27.8,30.14,WNW,294,0.0,0.0,46,0.00,,---,0.00,VWS V12.07,2013-10-06 08:53:00,
2013-10-06 01:58:00,46.9,27.8,30.14,WNW,294,0.0,0.0,47,0.00,,---,0.00,VWS V12.07,2013-10-06 08:58:00,
2013-10-06 02:00:00,47.0,27.9,30.14,WNW,294,0.0,0.0,47,0.00,,---,0.00,VWS V12.07,2013-10-06 09:00:00,
2013-10-06 02:03:00,46.6,27.7,30.14,WNW,294,0.0,0.0,48,0.00,,---,0.00,VWS V12.07,2013-10-06 09:03:00,
2013-10-06 02:08:00,46.4,27.5,30.14,WNW,294,0.0,0.0,48,0.00,,---,0.00,VWS V12.07,2013-10-06 09:08:00,
2013-10-06 02:09:00,46.3,27.4,30.14,WNW,294,0.0,0.0,47,0.00,,---,0.00,VWS V12.07,2013-10-06 09:09:00,
2013-10-06 02:14:00,46.2,27.2,30.14,WNW,294,0.0,0.0,47,0.00,,---,0.00,VWS V12.07,2013-10-06 09:14:00,
2013-10-06 02:19:00,46.2,26.9,30.14,WNW,294,0.0,0.0,47,0.00,,---,0.00,VWS V12.07,2013-10-06 09:19:00,
2013-10-06 02:24:00,46.1,26.8,30.14,WNW,294,0.0,0.0,46,0.00,,---,0.00,VWS V12.07,2013-10-06 09:24:00,
2013-10-06 02:29:00,46.1,27.0,30.13,WNW,294,0.0,0.0,47,0.00,,---,0.00,VWS V12.07,2013-10-06 09:29:00,
2013-10-06 02:30:00,46.2,26.9,30.14,WNW,294,0.0,0.0,47,0.00,,---,0.00,VWS V12.07,2013-10-06 09:30:00,
2013-10-06 02:34:00,46.4,27.1,30.13,WNW,295,0.0,3.4,47,0.00,,---,0.00,VWS V12.07,2013-10-06 09:34:00,
2013-10-06 02:39:00,47.1,27.1,30.13,WNW,295,0.0,3.4,45,0.00,,---,0.00,VWS V12.07,2013-10-06 09:39:00,
2013-10-06 02:44:00,47.3,27.2,30.13,WNW,295,0.0,3.4,45,0.00,,---,0.00,VWS V12.07,2013-10-06 09:44:00,
2013-10-06 02:49:00,47.3,27.3,30.13,WNW,295,0.0,3.4,45,0.00,,---,0.00,VWS V12.07,2013-10-06 09:49:00,
2013-10-06 02:54:00,47.3,27.3,30.13,WNW,295,0.0,3.4,45,0.00,,---,0.00,VWS V12.07,2013-10-06 09:54:00,
2013-10-06 02:59:00,47.3,27.4,30.13,WNW,295,0.0,3.4,46,0.00,,---,0.00,VWS V12.07,2013-10-06 09:59:00,
2013-10-06 03:00:00,47.3,27.4,30.13,WNW,295,0.0,3.4,46,0.00,,---,0.00,VWS V12.07,2013-10-06 10:00:00,
2013-10-06 03:04:00,47.7,27.6,30.13,WNW,295,0.0,3.4,45,0.00,,---,0.00,VWS V12.07,2013-10-06 10:04:00,
2013-10-06 03:09:00,47.7,27.5,30.13,WNW,295,0.0,3.4,45,0.00,,---,0.00,VWS V12.07,2013-10-06 10:09:00,
2013-10-06 03:14:00,47.9,27.5,30.13,WNW,295,0.0,3.4,45,0.00,,---,0.00,VWS V12.07,2013-10-06 10:14:00,
2013-10-06 03:19:00,48.0,27.5,30.13,WNW,295,0.0,3.4,45,0.00,,---,0.00,VWS V12.07,2013-10-06 10:19:00,
2013-10-06 03:24:00,47.9,27.5,30.13,WNW,295,0.0,3.4,45,0.00,,---,0.00,VWS V12.07,2013-10-06 10:24:00,
2013-10-06 03:29:00,48.1,27.5,30.13,WNW,285,0.0,3.5,44,0.00,,---,0.00,VWS V12.07,2013-10-06 10:29:00,
2013-10-06 03:30:00,48.0,27.5,30.13,WNW,285,3.3,3.5,45,0.00,,---,0.00,VWS V12.07,2013-10-06 10:30:00,
2013-10-06 03:34:00,48.4,27.4,30.13,NW,307,0.0,3.5,44,0.00,,---,0.00,VWS V12.07,2013-10-06 10:34:00,
2013-10-06 03:39:00,48.9,27.4,30.13,NW,307,0.0,3.5,43,0.00,,---,0.00,VWS V12.07,2013-10-06 10:39:00,
2013-10-06 03:44:00,49.1,27.4,30.13,NW,307,0.0,3.5,43,0.00,,---,0.00,VWS V12.07,2013-10-06 10:44:00,
2013-10-06 03:49:00,48.9,27.5,30.13,NW,307,0.0,3.3,43,0.00,,---,0.00,VWS V12.07,2013-10-06 10:49:00,
2013-10-06 03:54:00,48.3,27.4,30.13,NW,307,0.0,3.3,44,0.00,,---,0.00,VWS V12.07,2013-10-06 10:54:00,
2013-10-06 03:59:00,47.6,27.0,30.13,NW,307,0.0,3.3,44,0.00,,---,0.00,VWS V12.07,2013-10-06 10:59:00,
2013-10-06 04:00:00,47.9,27.2,30.13,NW,307,0.0,3.3,44,0.00,,---,0.00,VWS V12.07,2013-10-06 11:00:00,
2013-10-06 04:04:00,47.2,27.0,30.13,NW,307,0.0,3.3,45,0.00,,---,0.00,VWS V12.07,2013-10-06 11:04:00,
2013-10-06 04:09:00,46.8,27.0,30.13,NW,307,0.0,3.3,46,0.00,,---,0.00,VWS V12.07,2013-10-06 11:09:00,
2013-10-06 04:14:00,47.0,26.8,30.13,NW,307,0.0,3.3,45,0.00,,---,0.00,VWS V12.07,2013-10-06 11:14:00,
2013-10-06 04:19:00,47.2,26.9,30.13,NW,307,0.0,3.3,45,0.00,,---,0.00,VWS V12.07,2013-10-06 11:19:00,
2013-10-06 04:24:00,47.0,26.7,30.13,NW,307,0.0,3.3,45,0.00,,---,0.00,VWS V12.07,2013-10-06 11:24:00,
2013-10-06 04:29:00,46.8,26.6,30.13,NW,318,0.0,4.6,45,0.00,,---,0.00,VWS V12.07,2013-10-06 11:29:00,
2013-10-06 04:30:00,46.9,26.6,30.13,NW,307,0.0,0.0,45,0.00,,---,0.00,VWS V12.07,2013-10-06 11:30:00,
2013-10-06 04:34:00,46.6,26.5,30.13,NW,318,0.0,4.6,45,0.00,,---,0.00,VWS V12.07,2013-10-06 11:34:00,
2013-10-06 04:39:00,46.6,26.6,30.13,NW,304,4.3,6.2,45,0.00,,---,0.00,VWS V12.07,2013-10-06 11:39:00,
2013-10-06 04:44:00,47.1,26.6,30.13,North,357,3.4,6.2,44,0.00,,---,0.00,VWS V12.07,2013-10-06 11:44:00,
2013-10-06 04:49:00,47.3,26.6,30.13,NW,308,3.2,6.2,44,0.00,,---,0.00,VWS V12.07,2013-10-06 11:49:00,
2013-10-06 04:54:00,47.2,26.4,30.13,NNE,25,0.0,6.3,44,0.00,,---,0.00,VWS V12.07,2013-10-06 11:54:00,
2013-10-06 04:59:00,47.0,26.3,30.13,NNE,25,0.0,6.3,44,0.00,,---,0.00,VWS V12.07,2013-10-06 11:59:00,
2013-10-06 05:00:00,47.2,26.5,30.13,NNE,25,0.0,6.3,44,0.00,,---,0.00,VWS V12.07,2013-10-06 12:00:00,
2013-10-06 05:04:00,46.8,26.3,30.13,NNE,25,0.0,6.3,44,0.00,,---,0.00,VWS V12.07,2013-10-06 12:04:00,
2013-10-06 05:09:00,46.3,25.9,30.13,NNE,25,0.0,6.3,45,0.00,,---,0.00,VWS V12.07,2013-10-06 12:09:00,
2013-10-06 05:14:00,46.2,25.9,30.13,NW,312,0.0,7.5,45,0.00,,---,0.00,VWS V12.07,2013-10-06 12:14:00,
2013-10-06 05:19:00,46.3,26.0,30.14,NNW,346,0.0,7.5,45,0.00,,---,0.00,VWS V12.07,2013-10-06 12:19:00,
2013-10-06 05:24:00,46.2,25.9,30.14,North,359,0.0,7.5,45,0.00,,---,0.00,VWS V12.07,2013-10-06 12:24:00,
2013-10-06 05:29:00,46.2,25.7,30.14,NNW,336,0.0,7.5,44,0.00,,---,0.00,VWS V12.07,2013-10-06 12:29:00,
2013-10-06 05:30:00,46.3,25.9,30.13,NNW,346,4.8,7.5,45,0.00,,---,0.00,VWS V12.07,2013-10-06 12:30:00,
2013-10-06 05:34:00,46.6,26.0,30.13,NNW,343,1.2,7.5,44,0.00,,---,0.00,VWS V12.07,2013-10-06 12:34:00,
2013-10-06 05:39:00,46.5,25.9,30.13,NNW,338,0.0,7.5,44,0.00,,---,0.00,VWS V12.07,2013-10-06 12:39:00,
2013-10-06 05:44:00,46.6,25.9,30.13,North,353,0.0,7.5,44,0.00,,---,0.00,VWS V12.07,2013-10-06 12:44:00,
2013-10-06 05:49:00,46.3,25.4,30.14,North,354,1.8,6.5,44,0.00,,---,0.00,VWS V12.07,2013-10-06 12:49:00,
2013-10-06 05:54:00,46.5,25.6,30.13,NW,311,0.0,6.5,44,0.00,,---,0.00,VWS V12.07,2013-10-06 12:54:00,
2013-10-06 05:59:00,46.2,25.3,30.13,NW,314,0.0,6.5,44,0.00,,---,0.00,VWS V12.07,2013-10-06 12:59:00,
2013-10-06 06:00:00,46.3,25.4,30.14,NW,311,0.0,6.5,44,0.00,,---,0.00,VWS V12.07,2013-10-06 13:00:00,
2013-10-06 06:04:00,46.1,25.1,30.14,NE,49,0.0,6.5,44,0.00,,---,0.00,VWS V12.07,2013-10-06 13:04:00,
2013-10-06 06:09:00,46.0,25.4,30.14,WSW,250,0.0,6.5,44,0.00,,---,0.00,VWS V12.07,2013-10-06 13:09:00,
2013-10-06 06:14:00,45.6,25.1,30.15,West,274,0.0,6.5,44,0.00,,---,0.00,VWS V12.07,2013-10-06 13:14:00,
2013-10-06 06:19:00,45.4,25.4,30.15,West,274,0.0,6.5,45,0.00,,---,0.00,VWS V12.07,2013-10-06 13:19:00,
2013-10-06 06:24:00,44.9,25.8,30.15,West,274,0.0,6.5,47,0.00,,---,0.00,VWS V12.07,2013-10-06 13:24:00,
2013-10-06 06:29:00,44.1,25.7,30.15,West,274,0.0,6.5,48,0.00,,---,0.00,VWS V12.07,2013-10-06 13:29:00,
2013-10-06 06:30:00,44.4,25.8,30.15,West,274,0.0,5.3,48,0.00,,---,0.00,VWS V12.07,2013-10-06 13:30:00,
2013-10-06 06:34:00,43.7,25.3,30.15,West,274,0.0,6.5,48,0.00,,---,0.00,VWS V12.07,2013-10-06 13:34:00,
2013-10-06 06:39:00,43.4,25.4,30.15,West,274,0.0,6.5,49,0.00,,---,0.00,VWS V12.07,2013-10-06 13:39:00,
2013-10-06 06:44:00,43.0,25.4,30.15,West,274,0.0,6.5,50,0.00,,---,0.00,VWS V12.07,2013-10-06 13:44:00,
2013-10-06 06:49:00,42.9,25.3,30.15,West,274,0.0,0.0,50,0.00,,---,0.00,VWS V12.07,2013-10-06 13:49:00,
2013-10-06 06:54:00,42.8,25.4,30.15,West,274,0.0,0.0,50,0.00,,---,0.00,VWS V12.07,2013-10-06 13:54:00,
2013-10-06 06:59:00,42.9,25.4,30.15,West,274,0.0,0.0,50,0.00,,---,0.00,VWS V12.07,2013-10-06 13:59:00,
2013-10-06 07:00:00,43.0,25.5,30.15,West,274,0.0,0.0,50,0.00,,---,0.00,VWS V12.07,2013-10-06 14:00:00,
2013-10-06 07:04:00,43.2,25.5,30.16,West,274,0.0,0.0,49,0.00,,---,0.00,VWS V12.07,2013-10-06 14:04:00,
2013-10-06 07:09:00,43.5,25.9,30.15,West,274,0.0,0.0,50,0.00,,---,0.00,VWS V12.07,2013-10-06 14:09:00,
2013-10-06 07:14:00,44.1,26.1,30.16,West,274,0.0,0.0,49,0.00,,---,0.00,VWS V12.07,2013-10-06 14:14:00,
2013-10-06 07:19:00,44.6,26.3,30.16,West,274,0.0,0.0,48,0.00,,---,0.00,VWS V12.07,2013-10-06 14:19:00,
2013-10-06 07:24:00,44.9,26.3,30.16,West,274,0.0,0.0,48,0.00,,---,0.00,VWS V12.07,2013-10-06 14:24:00,
2013-10-06 07:29:00,45.3,26.1,30.16,NNE,17,0.0,5.3,47,0.00,,---,0.00,VWS V12.07,2013-10-06 14:29:00,
2013-10-06 07:30:00,45.2,26.2,30.16,North,10,0.0,1.5,47,0.00,,---,0.00,VWS V12.07,2013-10-06 14:30:00,
2013-10-06 07:34:00,45.9,26.4,30.15,North,356,0.0,5.3,46,0.00,,---,0.00,VWS V12.07,2013-10-06 14:34:00,
2013-10-06 07:39:00,46.0,26.5,30.16,NNW,335,3.3,5.3,46,0.00,,---,0.00,VWS V12.07,2013-10-06 14:39:00,
2013-10-06 07:44:00,46.3,26.8,30.16,NW,318,0.0,5.3,46,0.00,,---,0.00,VWS V12.07,2013-10-06 14:44:00,
2013-10-06 07:49:00,46.9,27.0,30.16,North,359,0.0,5.3,46,0.00,,---,0.00,VWS V12.07,2013-10-06 14:49:00,
2013-10-06 07:54:00,47.5,27.1,30.16,WNW,298,0.0,7.1,45,0.00,,---,0.00,VWS V12.07,2013-10-06 14:54:00,
2013-10-06 07:59:00,48.4,27.5,30.16,ENE,72,3.1,7.1,44,0.00,,---,0.00,VWS V12.07,2013-10-06 14:59:00,
2013-10-06 08:00:00,47.9,27.2,30.16,North,359,0.0,7.1,44,0.00,,---,0.00,VWS V12.07,2013-10-06 15:00:00,
2013-10-06 08:04:00,49.0,26.8,30.16,NE,41,0.0,7.1,42,0.00,,---,0.00,VWS V12.07,2013-10-06 15:04:00,
2013-10-06 08:09:00,49.6,26.6,30.16,North,6,0.0,7.1,40,0.00,,---,0.00,VWS V12.07,2013-10-06 15:09:00,
2013-10-06 08:14:00,49.7,27.0,30.16,NNE,24,0.0,7.1,41,0.00,,---,0.00,VWS V12.07,2013-10-06 15:14:00,
2013-10-06 08:19:00,49.9,27.5,30.16,NE,39,0.0,7.1,42,0.00,,---,0.00,VWS V12.07,2013-10-06 15:19:00,
2013-10-06 08:24:00,50.0,27.7,30.16,NE,39,0.0,7.1,42,0.00,,---,0.00,VWS V12.07,2013-10-06 15:24:00,
2013-10-06 08:29:00,50.2,27.5,30.16,NE,39,0.0,7.1,41,0.00,,---,0.00,VWS V12.07,2013-10-06 15:29:00,
2013-10-06 08:30:00,50.1,27.7,30.16,NE,39,0.0,7.0,42,0.00,,---,0.00,VWS V12.07,2013-10-06 15:30:00,
2013-10-06 08:34:00,50.5,27.7,30.16,NE,39,0.0,7.1,41,0.00,,---,0.00,VWS V12.07,2013-10-06 15:34:00,
2013-10-06 08:39:00,50.8,27.4,30.16,NE,39,0.0,7.1,40,0.00,,---,0.00,VWS V12.07,2013-10-06 15:39:00,
2013-10-06 08:44:00,51.3,27.5,30.16,NE,39,0.0,7.1,39,0.00,,---,0.00,VWS V12.07,2013-10-06 15:44:00,
2013-10-06 08:49:00,51.9,28.0,30.16,NE,39,0.0,0.0,39,0.00,,---,0.00,VWS V12.07,2013-10-06 15:49:00,
2013-10-06 08:54:00,52.7,28.3,30.16,NE,39,0.0,0.0,39,0.00,,---,0.00,VWS V12.07,2013-10-06 15:54:00,
2013-10-06 08:59:00,53.5,28.1,30.16,NE,39,0.0,0.0,37,0.00,,---,0.00,VWS V12.07,2013-10-06 15:59:00,
2013-10-06 09:00:00,53.1,28.2,30.16,NE,39,0.0,0.0,38,0.00,,---,0.00,VWS V12.07,2013-10-06 16:00:00,
2013-10-06 09:04:00,54.1,27.9,30.16,NE,39,0.0,0.0,36,0.00,,---,0.00,VWS V12.07,2013-10-06 16:04:00,
2013-10-06 09:09:00,54.6,28.2,30.16,NE,39,0.0,0.0,36,0.00,,---,0.00,VWS V12.07,2013-10-06 16:09:00,
2013-10-06 09:14:00,55.2,28.0,30.16,NNE,25,0.0,2.5,35,0.00,,---,0.00,VWS V12.07,2013-10-06 16:14:00,
2013-10-06 09:19:00,55.8,28.4,30.16,NNE,25,0.0,2.5,35,0.00,,---,0.00,VWS V12.07,2013-10-06 16:19:00,
2013-10-06 09:24:00,56.4,28.8,30.16,NNE,25,0.0,2.5,34,0.00,,---,0.00,VWS V12.07,2013-10-06 16:24:00,
2013-10-06 09:29:00,56.8,28.8,30.16,NNE,25,3.0,3.4,34,0.00,,---,0.00,VWS V12.07,2013-10-06 16:29:00,
2013-10-06 09:30:00,56.5,28.4,30.16,NNE,25,0.0,2.5,34,0.00,,---,0.00,VWS V12.07,2013-10-06 16:30:00,
2013-10-06 09:34:00,57.7,29.3,30.15,NE,49,0.0,4.3,34,0.00,,---,0.00,VWS V12.07,2013-10-06 16:34:00,
2013-10-06 09:39:00,58.4,29.1,30.15,NE,49,0.0,4.3,32,0.00,,---,0.00,VWS V12.07,2013-10-06 16:39:00,
2013-10-06 09:44:00,59.5,29.3,30.15,NE,49,0.0,4.3,32,0.00,,---,0.00,VWS V12.07,2013-10-06 16:44:00,
2013-10-06 09:49:00,60.4,29.0,30.15,NE,49,0.0,4.3,30,0.00,,---,0.00,VWS V12.07,2013-10-06 16:49:00,
2013-10-06 09:54:00,61.2,29.8,30.15,NE,49,0.0,4.3,30,0.00,,---,0.00,VWS V12.07,2013-10-06 16:54:00,
2013-10-06 09:59:00,61.9,30.0,30.15,NE,49,0.0,4.3,30,0.00,,---,0.00,VWS V12.07,2013-10-06 16:59:00,
2013-10-06 10:00:00,61.6,29.9,30.15,NE,49,0.0,4.3,30,0.00,,---,0.00,VWS V12.07,2013-10-06 17:00:00,
2013-10-06 10:04:00,62.6,29.8,30.15,NE,49,0.0,4.3,29,0.00,,---,0.00,VWS V12.07,2013-10-06 17:04:00,
2013-10-06 10:09:00,63.1,29.7,30.15,NE,49,0.0,4.3,28,0.00,,---,0.00,VWS V12.07,2013-10-06 17:09:00,
2013-10-06 10:14:00,63.7,28.9,30.15,NE,49,0.0,4.3,27,0.00,,---,0.00,VWS V12.07,2013-10-06 17:14:00,
2013-10-06 10:19:00,64.1,29.3,30.14,NE,49,0.0,4.3,27,0.00,,---,0.00,VWS V12.07,2013-10-06 17:19:00,
2013-10-06 10:24:00,64.9,28.6,30.14,NE,49,0.0,4.3,25,0.00,,---,0.00,VWS V12.07,2013-10-06 17:24:00,
2013-10-06 10:29:00,65.7,27.5,30.14,NE,49,0.0,4.3,24,0.00,,---,0.00,VWS V12.07,2013-10-06 17:29:00,
2013-10-06 10:30:00,65.3,28.1,30.14,NE,49,0.0,0.0,24,0.00,,---,0.00,VWS V12.07,2013-10-06 17:30:00,
2013-10-06 10:34:00,66.3,26.2,30.13,NE,49,0.0,4.3,22,0.00,,---,0.00,VWS V12.07,2013-10-06 17:34:00,
2013-10-06 10:39:00,67.1,25.5,30.13,NE,49,0.0,4.3,21,0.00,,---,0.00,VWS V12.07,2013-10-06 17:39:00,
2013-10-06 10:44:00,67.8,23.3,30.13,NE,49,0.0,4.3,18,0.00,,---,0.00,VWS V12.07,2013-10-06 17:44:00,
2013-10-06 10:49:00,68.4,23.3,30.13,NE,49,0.0,0.0,18,0.00,,---,0.00,VWS V12.07,2013-10-06 17:49:00,
2013-10-06 10:54:00,69.2,23.7,30.13,NE,49,0.0,0.0,18,0.00,,---,0.00,VWS V12.07,2013-10-06 17:54:00,
2013-10-06 10:59:00,70.5,23.6,30.12,NE,49,0.0,0.0,17,0.00,,---,0.00,VWS V12.07,2013-10-06 17:59:00,
2013-10-06 11:00:00,69.9,23.5,30.12,NE,49,0.0,0.0,17,0.00,,---,0.00,VWS V12.07,2013-10-06 18:00:00,
2013-10-06 11:04:00,70.9,23.2,30.13,NE,49,0.0,0.0,16,0.00,,---,0.00,VWS V12.07,2013-10-06 18:04:00,
2013-10-06 11:09:00,71.5,22.4,30.12,NE,49,0.0,0.0,16,0.00,,---,0.00,VWS V12.07,2013-10-06 18:09:00,
2013-10-06 11:14:00,71.3,21.6,30.12,SW,236,0.0,7.5,15,0.00,,---,0.00,VWS V12.07,2013-10-06 18:14:00,
2013-10-06 11:19:00,71.0,21.2,30.12,WSW,239,0.0,8.9,15,0.00,,---,0.00,VWS V12.07,2013-10-06 18:19:00,
2013-10-06 11:24:00,71.6,21.4,30.12,WSW,239,0.0,8.9,15,0.00,,---,0.00,VWS V12.07,2013-10-06 18:24:00,
2013-10-06 11:29:00,72.2,20.7,30.11,South,188,0.0,8.9,14,0.00,,---,0.00,VWS V12.07,2013-10-06 18:29:00,
2013-10-06 11:30:00,71.9,21.6,30.11,South,169,0.0,8.9,15,0.00,,---,0.00,VWS V12.07,2013-10-06 18:30:00,
2013-10-06 11:34:00,72.6,21.4,30.11,South,172,0.0,8.9,14,0.00,,---,0.00,VWS V12.07,2013-10-06 18:34:00,
2013-10-06 11:39:00,73.2,21.4,30.10,SW,219,0.0,8.9,14,0.00,,---,0.00,VWS V12.07,2013-10-06 18:39:00,
2013-10-06 11:44:00,73.9,20.9,30.10,SSW,198,0.0,8.9,14,0.00,,---,0.00,VWS V12.07,2013-10-06 18:44:00,
2013-10-06 11:49:00,74.5,20.6,30.10,SSW,198,0.0,6.7,13,0.00,,---,0.00,VWS V12.07,2013-10-06 18:49:00,
2013-10-06 11:54:00,74.7,20.5,30.10,SSE,162,0.0,6.7,13,0.00,,---,0.00,VWS V12.07,2013-10-06 18:54:00,
2013-10-06 11:59:00,74.7,20.8,30.09,SSE,162,0.0,6.7,13,0.00,,---,0.00,VWS V12.07,2013-10-06 18:59:00,
2013-10-06 12:00:00,74.7,20.3,30.09,SSE,162,0.0,6.7,13,0.00,,---,0.00,VWS V12.07,2013-10-06 19:00:00,
2013-10-06 12:04:00,75.2,20.1,30.09,SSE,162,0.0,6.7,12,0.00,,---,0.00,VWS V12.07,2013-10-06 19:04:00,
2013-10-06 12:09:00,75.5,20.1,30.08,SW,214,0.0,7.5,12,0.00,,---,0.00,VWS V12.07,2013-10-06 19:09:00,
2013-10-06 12:14:00,75.2,20.5,30.08,WSW,246,0.0,7.5,13,0.00,,---,0.00,VWS V12.07,2013-10-06 19:14:00,
2013-10-06 12:19:00,75.5,21.1,30.08,West,266,0.0,7.5,13,0.00,,---,0.00,VWS V12.07,2013-10-06 19:19:00,
2013-10-06 12:24:00,75.8,20.8,30.08,West,266,0.0,7.5,13,0.00,,---,0.00,VWS V12.07,2013-10-06 19:24:00,
2013-10-06 12:29:00,76.3,21.5,30.07,NNE,21,0.0,7.5,13,0.00,,---,0.00,VWS V12.07,2013-10-06 19:29:00,
2013-10-06 12:30:00,76.1,21.0,30.07,NNE,21,1.4,7.5,13,0.00,,---,0.00,VWS V12.07,2013-10-06 19:30:00,
2013-10-06 12:34:00,77.0,20.9,30.07,NW,312,4.8,7.5,12,0.00,,---,0.00,VWS V12.07,2013-10-06 19:34:00,
2013-10-06 12:39:00,77.7,20.7,30.07,North,0,0.0,7.5,12,0.00,,---,0.00,VWS V12.07,2013-10-06 19:39:00,
2013-10-06 12:44:00,77.5,20.7,30.07,North,0,0.0,7.5,12,0.00,,---,0.00,VWS V12.07,2013-10-06 19:44:00,
2013-10-06 12:49:00,77.8,21.0,30.07,North,0,0.0,4.8,12,0.00,,---,0.00,VWS V12.07,2013-10-06 19:49:00,
2013-10-06 12:54:00,78.8,21.8,30.06,NNE,18,4.4,7.0,12,0.00,,---,0.00,VWS V12.07,2013-10-06 19:54:00,
2013-10-06 12:59:00,79.1,21.2,30.06,North,356,0.0,7.0,12,0.00,,---,0.00,VWS V12.07,2013-10-06 19:59:00,
2013-10-06 13:00:00,78.9,21.6,30.06,NNE,25,0.0,7.0,12,0.00,,---,0.00,VWS V12.07,2013-10-06 20:00:00,
2013-10-06 13:04:00,78.9,20.8,30.05,NNE,25,0.0,7.0,11,0.00,,---,0.00,VWS V12.07,2013-10-06 20:04:00,
2013-10-06 13:09:00,79.3,21.5,30.05,ENE,76,0.0,7.0,12,0.00,,---,0.00,VWS V12.07,2013-10-06 20:09:00,
2013-10-06 13:14:00,79.2,21.5,30.05,ENE,76,0.0,7.0,12,0.00,,---,0.00,VWS V12.07,2013-10-06 20:14:00,
2013-10-06 13:19:00,79.4,21.2,30.05,NNW,339,0.0,7.0,11,0.00,,---,0.00,VWS V12.07,2013-10-06 20:19:00,
2013-10-06 13:24:00,80.0,21.2,30.04,NNW,339,0.0,7.0,11,0.00,,---,0.00,VWS V12.07,2013-10-06 20:24:00,
2013-10-06 13:29:00,80.1,20.9,30.04,NNW,339,0.0,7.0,11,0.00,,---,0.00,VWS V12.07,2013-10-06 20:29:00,
2013-10-06 13:30:00,80.3,21.1,30.04,NNW,339,0.0,5.5,11,0.00,,---,0.00,VWS V12.07,2013-10-06 20:30:00,
2013-10-06 13:34:00,80.0,21.9,30.03,NNW,339,0.0,7.0,12,0.00,,---,0.00,VWS V12.07,2013-10-06 20:34:00,
2013-10-06 13:39:00,80.2,21.4,30.03,NE,56,0.0,7.0,11,0.00,,---,0.00,VWS V12.07,2013-10-06 20:39:00,
2013-10-06 13:44:00,80.5,21.2,30.03,SSW,193,3.5,7.0,11,0.00,,---,0.00,VWS V12.07,2013-10-06 20:44:00,
2013-10-06 13:49:00,81.2,20.4,30.03,SW,221,0.0,5.9,10,0.00,,---,0.00,VWS V12.07,2013-10-06 20:49:00,
2013-10-06 13:54:00,81.5,20.0,30.03,SSE,155,2.7,11.2,10,0.00,,---,0.00,VWS V12.07,2013-10-06 20:54:00,
2013-10-06 13:59:00,81.7,20.1,30.02,South,179,7.1,11.2,10,0.00,,---,0.00,VWS V12.07,2013-10-06 20:59:00,
2013-10-06 14:00:00,81.4,20.6,30.03,South,170,0.0,11.2,10,0.00,,---,0.00,VWS V12.07,2013-10-06 21:00:00,
2013-10-06 14:04:00,81.4,19.4,30.02,WNW,284,4.8,11.2,10,0.00,,---,0.00,VWS V12.07,2013-10-06 21:04:00,
2013-10-06 14:09:00,80.8,19.7,30.02,West,262,0.0,11.2,10,0.00,,---,0.00,VWS V12.07,2013-10-06 21:09:00,
2013-10-06 14:14:00,80.6,19.0,30.02,WSW,249,2.4,11.2,10,0.00,,---,0.00,VWS V12.07,2013-10-06 21:14:00,
2013-10-06 14:19:00,80.8,19.0,30.02,SSW,210,0.0,11.2,10,0.00,,---,0.00,VWS V12.07,2013-10-06 21:19:00,
2013-10-06 14:24:00,80.9,18.8,30.02,SSW,210,0.0,11.2,10,0.00,,---,0.00,VWS V12.07,2013-10-06 21:24:00,
2013-10-06 14:29:00,81.1,18.5,30.02,SW,215,0.0,11.2,10,0.00,,---,0.00,VWS V12.07,2013-10-06 21:29:00,
2013-10-06 14:30:00,81.0,18.6,30.02,SW,217,3.5,8.1,10,0.00,,---,0.00,VWS V12.07,2013-10-06 21:30:00,
2013-10-06 14:34:00,81.1,18.5,30.02,NW,318,0.0,11.2,10,0.00,,---,0.00,VWS V12.07,2013-10-06 21:34:00,
2013-10-06 14:39:00,81.0,19.1,30.01,NNE,31,0.0,11.2,10,0.00,,---,0.00,VWS V12.07,2013-10-06 21:39:00,
2013-10-06 14:44:00,81.1,18.0,30.01,NNE,15,2.3,11.2,9,0.00,,---,0.00,VWS V12.07,2013-10-06 21:44:00,
2013-10-06 14:49:00,81.5,19.7,30.01,NE,39,0.0,6.8,10,0.00,,---,0.00,VWS V12.07,2013-10-06 21:49:00,
2013-10-06 14:54:00,81.4,19.2,30.01,NE,39,0.0,6.8,10,0.00,,---,0.00,VWS V12.07,2013-10-06 21:54:00,
2013-10-06 14:59:00,82.4,20.0,30.01,NE,39,0.0,6.8,10,0.00,,---,0.00,VWS V12.07,2013-10-06 21:59:00,
2013-10-06 15:00:00,82.0,19.9,30.01,NE,39,0.0,6.8,10,0.00,,---,0.00,VWS V12.07,2013-10-06 22:00:00,
2013-10-06 15:04:00,82.3,18.9,30.01,NE,39,0.0,6.8,9,0.00,,---,0.00,VWS V12.07,2013-10-06 22:04:00,
2013-10-06 15:09:00,82.0,19.2,30.00,NE,39,0.0,6.8,10,0.00,,---,0.00,VWS V12.07,2013-10-06 22:09:00,
2013-10-06 15:14:00,82.4,19.7,30.00,NE,39,0.0,6.8,10,0.00,,---,0.00,VWS V12.07,2013-10-06 22:14:00,
2013-10-06 15:19:00,83.3,19.1,30.00,NE,39,0.0,6.8,9,0.00,,---,0.00,VWS V12.07,2013-10-06 22:19:00,
2013-10-06 15:24:00,83.4,18.7,30.00,NE,39,0.0,6.8,9,0.00,,---,0.00,VWS V12.07,2013-10-06 22:24:00,
2013-10-06 15:29:00,83.5,18.3,30.00,NE,39,0.0,6.8,9,0.00,,---,0.00,VWS V12.07,2013-10-06 22:29:00,
2013-10-06 15:30:00,83.4,18.2,30.00,NE,39,0.0,0.0,9,0.00,,---,0.00,VWS V12.07,2013-10-06 22:30:00,
2013-10-06 15:34:00,83.9,18.6,30.00,NE,39,0.0,6.8,9,0.00,,---,0.00,VWS V12.07,2013-10-06 22:34:00,
2013-10-06 15:39:00,83.8,19.0,30.00,NE,39,0.0,6.8,9,0.00,,---,0.00,VWS V12.07,2013-10-06 22:39:00,
2013-10-06 15:44:00,83.5,18.8,30.00,NE,39,0.0,6.8,9,0.00,,---,0.00,VWS V12.07,2013-10-06 22:44:00,
2013-10-06 15:49:00,83.9,18.0,30.00,WNW,294,0.0,3.1,9,0.00,,---,0.00,VWS V12.07,2013-10-06 22:49:00,
2013-10-06 15:54:00,83.6,18.3,30.00,WNW,294,0.0,3.1,9,0.00,,---,0.00,VWS V12.07,2013-10-06 22:54:00,
2013-10-06 15:59:00,84.1,19.2,29.99,WNW,294,0.0,3.1,9,0.00,,---,0.00,VWS V12.07,2013-10-06 22:59:00,
2013-10-06 16:00:00,83.6,18.3,29.99,WNW,294,0.0,3.1,9,0.00,,---,0.00,VWS V12.07,2013-10-06 23:00:00,
2013-10-06 16:04:00,84.4,18.9,29.99,SSW,208,3.0,5.7,9,0.00,,---,0.00,VWS V12.07,2013-10-06 23:04:00,
2013-10-06 16:09:00,83.8,19.3,29.99,SSW,204,0.0,5.7,9,0.00,,---,0.00,VWS V12.07,2013-10-06 23:09:00,
2013-10-06 16:14:00,83.5,19.5,29.99,SSW,204,0.0,5.7,9,0.00,,---,0.00,VWS V12.07,2013-10-06 23:14:00,
2013-10-06 16:19:00,83.7,20.2,29.99,SSW,204,0.0,5.7,10,0.00,,---,0.00,VWS V12.07,2013-10-06 23:19:00,
2013-10-06 16:25:00,83.6,19.4,29.99,SSW,204,0.0,5.7,9,0.00,,---,0.00,VWS V12.07,2013-10-06 23:25:00,
2013-10-06 16:30:00,83.4,19.5,29.99,SSW,204,0.0,5.7,9,0.00,,---,0.00,VWS V12.07,2013-10-06 23:30:00,
2013-10-06 16:35:00,83.4,20.2,29.99,SSW,204,0.0,5.7,10,0.00,,---,0.00,VWS V12.07,2013-10-06 23:35:00,
2013-10-06 16:40:00,83.8,20.8,29.99,SSW,204,0.0,5.7,10,0.00,,---,0.00,VWS V12.07,2013-10-06 23:40:00,
2013-10-06 16:45:00,83.8,20.0,29.99,SW,214,0.0,5.7,9,0.00,,---,0.00,VWS V12.07,2013-10-06 23:45:00,
2013-10-06 16:50:00,83.4,20.2,30.00,SW,214,0.0,4.5,10,0.00,,---,0.00,VWS V12.07,2013-10-06 23:50:00,
2013-10-06 16:55:00,83.6,20.6,30.00,SW,214,0.0,4.5,10,0.00,,---,0.00,VWS V12.07,2013-10-06 23:55:00,
2013-10-06 17:00:00,83.6,20.4,29.99,SW,214,0.0,4.5,10,0.00,,---,0.00,VWS V12.07,2013-10-07 00:00:00,
2013-10-06 17:05:00,83.7,20.9,29.99,SW,214,0.0,4.5,10,0.00,,---,0.00,VWS V12.07,2013-10-07 00:05:00,
2013-10-06 17:10:00,83.4,21.6,29.99,SW,214,0.0,4.5,10,0.00,,---,0.00,VWS V12.07,2013-10-07 00:10:00,
2013-10-06 17:15:00,83.3,21.6,29.99,SW,214,0.0,4.5,10,0.00,,---,0.00,VWS V12.07,2013-10-07 00:15:00,
2013-10-06 17:20:00,82.6,22.4,29.99,SW,235,2.4,7.1,11,0.00,,---,0.00,VWS V12.07,2013-10-07 00:20:00,
2013-10-06 17:25:00,81.7,24.2,29.99,WSW,252,3.5,7.8,12,0.00,,---,0.00,VWS V12.07,2013-10-07 00:25:00,
2013-10-06 17:30:00,80.5,25.2,29.99,SW,226,3.3,7.8,13,0.00,,---,0.00,VWS V12.07,2013-10-07 00:30:00,
2013-10-06 17:35:00,79.0,26.0,29.99,WSW,238,0.0,7.8,14,0.00,,---,0.00,VWS V12.07,2013-10-07 00:35:00,
2013-10-06 17:40:00,77.3,25.4,29.99,West,264,3.2,7.8,15,0.00,,---,0.00,VWS V12.07,2013-10-07 00:40:00,
2013-10-06 17:45:00,76.3,25.1,29.99,WSW,249,6.5,7.8,15,0.00,,---,0.00,VWS V12.07,2013-10-07 00:45:00,
2013-10-06 17:50:00,75.2,24.7,29.99,SW,219,0.0,7.3,15,0.00,,---,0.00,VWS V12.07,2013-10-07 00:50:00,
2013-10-06 17:55:00,74.6,24.1,29.99,West,260,3.4,7.3,15,0.00,,---,0.00,VWS V12.07,2013-10-07 00:55:00,
2013-10-06 18:00:00,74.3,23.1,29.99,West,273,0.0,7.3,15,0.00,,---,0.00,VWS V12.07,2013-10-07 01:00:00,
2013-10-06 18:05:00,74.0,22.5,29.99,SW,236,0.0,7.3,14,0.00,,---,0.00,VWS V12.07,2013-10-07 01:05:00,
2013-10-06 18:10:00,73.7,21.6,29.99,SW,236,0.0,7.3,14,0.00,,---,0.00,VWS V12.07,2013-10-07 01:10:00,
2013-10-06 18:15:00,73.6,21.5,29.99,SW,236,0.0,7.3,14,0.00,,---,0.00,VWS V12.07,2013-10-07 01:15:00,
2013-10-06 18:20:00,73.2,21.2,29.99,SW,236,0.0,7.3,14,0.00,,---,0.00,VWS V12.07,2013-10-07 01:20:00,
2013-10-06 18:25:00,72.8,21.9,29.99,SW,236,0.0,7.3,15,0.00,,---,0.00,VWS V12.07,2013-10-07 01:25:00,
2013-10-06 18:30:00,72.5,22.6,29.99,SW,236,0.0,7.3,15,0.00,,---,0.00,VWS V12.07,2013-10-07 01:30:00,
2013-10-06 18:35:00,71.6,23.8,29.99,SW,236,0.0,7.3,16,0.00,,---,0.00,VWS V12.07,2013-10-07 01:35:00,
2013-10-06 18:40:00,70.9,25.3,30.00,SW,236,0.0,7.3,18,0.00,,---,0.00,VWS V12.07,2013-10-07 01:40:00,
2013-10-06 18:45:00,70.2,25.8,30.00,SW,236,0.0,7.3,19,0.00,,---,0.00,VWS V12.07,2013-10-07 01:45:00,
2013-10-06 18:50:00,69.6,26.3,30.00,SW,236,0.0,0.0,20,0.00,,---,0.00,VWS V12.07,2013-10-07 01:50:00,
2013-10-06 18:55:00,69.1,27.2,30.00,SW,236,0.0,0.0,21,0.00,,---,0.00,VWS V12.07,2013-10-07 01:55:00,
2013-10-06 19:00:00,68.4,27.9,30.00,SW,236,0.0,0.0,22,0.00,,---,0.00,VWS V12.07,2013-10-07 02:00:00,
2013-10-06 19:05:00,67.8,28.3,30.00,SW,236,0.0,0.0,23,0.00,,---,0.00,VWS V12.07,2013-10-07 02:05:00,
2013-10-06 19:10:00,66.8,27.6,30.01,SW,236,0.0,0.0,23,0.00,,---,0.00,VWS V12.07,2013-10-07 02:10:00,
2013-10-06 19:15:00,66.1,27.4,30.01,SW,236,0.0,0.0,23,0.00,,---,0.00,VWS V12.07,2013-10-07 02:15:00,
2013-10-06 19:20:00,65.8,27.5,30.02,SW,236,0.0,0.0,24,0.00,,---,0.00,VWS V12.07,2013-10-07 02:20:00,
2013-10-06 19:25:00,65.8,26.6,30.02,WNW,300,0.0,3.2,23,0.00,,---,0.00,VWS V12.07,2013-10-07 02:25:00,
2013-10-06 19:30:00,65.8,25.3,30.02,WSW,239,0.0,3.2,21,0.00,,---,0.00,VWS V12.07,2013-10-07 02:30:00,
2013-10-06 19:35:00,65.9,24.5,30.02,WSW,239,0.0,3.2,21,0.00,,---,0.00,VWS V12.07,2013-10-07 02:35:00,
2013-10-06 19:40:00,66.1,24.7,30.02,WSW,239,0.0,3.2,21,0.00,,---,0.00,VWS V12.07,2013-10-07 02:40:00,
2013-10-06 19:45:00,66.5,24.0,30.02,WSW,242,0.0,5.0,20,0.00,,---,0.00,VWS V12.07,2013-10-07 02:45:00,
2013-10-06 19:50:00,66.9,23.7,30.02,West,262,0.0,5.8,19,0.00,,---,0.00,VWS V12.07,2013-10-07 02:50:00,
2013-10-06 19:55:00,67.0,24.0,30.02,WSW,255,0.0,6.2,20,0.00,,---,0.00,VWS V12.07,2013-10-07 02:55:00,
2013-10-06 20:00:00,66.5,24.9,30.02,WSW,255,0.0,6.2,21,0.00,,---,0.00,VWS V12.07,2013-10-07 03:00:00,
2013-10-06 20:05:00,65.9,25.1,30.02,WSW,255,0.0,6.2,21,0.00,,---,0.00,VWS V12.07,2013-10-07 03:05:00,
2013-10-06 20:10:00,65.1,25.2,30.02,WSW,255,0.0,6.2,22,0.00,,---,0.00,VWS V12.07,2013-10-07 03:10:00,
2013-10-06 20:15:00,64.7,25.5,30.02,WSW,255,0.0,6.2,22,0.00,,---,0.00,VWS V12.07,2013-10-07 03:15:00,
2013-10-06 20:20:00,64.1,25.5,30.02,WSW,255,0.0,6.2,23,0.00,,---,0.00,VWS V12.07,2013-10-07 03:20:00,
2013-10-06 20:25:00,63.9,25.7,30.02,WSW,255,0.0,6.2,23,0.00,,---,0.00,VWS V12.07,2013-10-07 03:25:00,
2013-10-06 20:30:00,63.7,26.2,30.02,WSW,255,0.0,6.2,24,0.00,,---,0.00,VWS V12.07,2013-10-07 03:30:00,
2013-10-06 20:35:00,63.2,26.2,30.02,WSW,255,0.0,6.2,24,0.00,,---,0.00,VWS V12.07,2013-10-07 03:35:00,
2013-10-06 20:40:00,63.0,26.3,30.02,WSW,255,0.0,6.2,25,0.00,,---,0.00,VWS V12.07,2013-10-07 03:40:00,
2013-10-06 20:45:00,62.7,26.6,30.02,WSW,255,0.0,6.2,25,0.00,,---,0.00,VWS V12.07,2013-10-07 03:45:00,
2013-10-06 20:50:00,62.4,26.6,30.02,WSW,255,0.0,0.0,26,0.00,,---,0.00,VWS V12.07,2013-10-07 03:50:00,
2013-10-06 20:55:00,61.9,26.7,30.02,WSW,255,0.0,0.0,26,0.00,,---,0.00,VWS V12.07,2013-10-07 03:55:00,
2013-10-06 21:00:00,61.7,27.0,30.02,WSW,255,0.0,0.0,27,0.00,,---,0.00,VWS V12.07,2013-10-07 04:00:00,
2013-10-06 21:01:00,61.6,26.8,30.02,WSW,255,0.0,0.0,26,0.00,,---,0.00,VWS V12.07,2013-10-07 04:01:00,
2013-10-06 21:02:00,61.7,26.9,30.02,WSW,255,0.0,0.0,26,0.00,,---,0.00,VWS V12.07,2013-10-07 04:02:00,
2013-10-06 21:07:00,61.6,26.8,30.02,WSW,255,0.0,0.0,26,0.00,,---,0.00,VWS V12.07,2013-10-07 04:07:00,
2013-10-06 21:12:00,61.5,26.0,30.02,WSW,255,0.0,0.0,26,0.00,,---,0.00,VWS V12.07,2013-10-07 04:12:00,
2013-10-06 21:17:00,61.5,26.0,30.02,WSW,255,0.0,0.0,26,0.00,,---,0.00,VWS V12.07,2013-10-07 04:17:00,
2013-10-06 21:22:00,61.4,25.9,30.02,WSW,255,0.0,0.0,26,0.00,,---,0.00,VWS V12.07,2013-10-07 04:22:00,
2013-10-06 21:27:00,61.2,25.7,30.02,WSW,255,0.0,0.0,26,0.00,,---,0.00,VWS V12.07,2013-10-07 04:27:00,
2013-10-06 21:30:00,61.4,25.9,30.02,WSW,255,0.0,0.0,26,0.00,,---,0.00,VWS V12.07,2013-10-07 04:30:00,
2013-10-06 21:32:00,61.3,25.5,30.02,WSW,255,0.0,0.0,25,0.00,,---,0.00,VWS V12.07,2013-10-07 04:32:00,
2013-10-06 21:37:00,61.4,25.4,30.02,WSW,255,0.0,0.0,25,0.00,,---,0.00,VWS V12.07,2013-10-07 04:37:00,
2013-10-06 21:42:00,61.4,25.3,30.03,WSW,255,0.0,0.0,25,0.00,,---,0.00,VWS V12.07,2013-10-07 04:42:00,
2013-10-06 21:47:00,61.3,25.2,30.02,WSW,255,0.0,0.0,25,0.00,,---,0.00,VWS V12.07,2013-10-07 04:47:00,
2013-10-06 21:52:00,61.1,25.4,30.02,WSW,255,0.0,0.0,25,0.00,,---,0.00,VWS V12.07,2013-10-07 04:52:00,
2013-10-06 21:57:00,60.9,25.1,30.03,WSW,255,0.0,0.0,25,0.00,,---,0.00,VWS V12.07,2013-10-07 04:57:00,
2013-10-06 22:00:00,60.9,25.0,30.03,WSW,255,0.0,0.0,25,0.00,,---,0.00,VWS V12.07,2013-10-07 05:00:00,
2013-10-06 22:02:00,60.8,25.6,30.03,WSW,255,0.0,0.0,26,0.00,,---,0.00,VWS V12.07,2013-10-07 05:02:00,
2013-10-06 22:07:00,60.5,25.4,30.02,WSW,255,0.0,0.0,26,0.00,,---,0.00,VWS V12.07,2013-10-07 05:07:00,
2013-10-06 22:12:00,60.2,26.6,30.03,WSW,255,0.0,0.0,28,0.00,,---,0.00,VWS V12.07,2013-10-07 05:12:00,
2013-10-06 22:17:00,59.5,26.4,30.02,WSW,255,0.0,0.0,28,0.00,,---,0.00,VWS V12.07,2013-10-07 05:17:00,
2013-10-06 22:22:00,58.9,26.6,30.03,WSW,255,0.0,0.0,29,0.00,,---,0.00,VWS V12.07,2013-10-07 05:22:00,
2013-10-06 22:27:00,57.9,27.1,30.03,WSW,255,0.0,0.0,30,0.00,,---,0.00,VWS V12.07,2013-10-07 05:27:00,
2013-10-06 22:30:00,57.9,27.1,30.03,WSW,255,0.0,0.0,30,0.00,,---,0.00,VWS V12.07,2013-10-07 05:30:00,
2013-10-06 22:32:00,57.0,27.5,30.03,WSW,255,0.0,0.0,32,0.00,,---,0.00,VWS V12.07,2013-10-07 05:32:00,
2013-10-06 22:37:00,56.5,27.8,30.03,WSW,255,0.0,0.0,33,0.00,,---,0.00,VWS V12.07,2013-10-07 05:37:00,
2013-10-06 22:42:00,56.2,27.1,30.03,WSW,255,0.0,0.0,32,0.00,,---,0.00,VWS V12.07,2013-10-07 05:42:00,
2013-10-06 22:47:00,56.0,27.2,30.03,WSW,255,0.0,0.0,33,0.00,,---,0.00,VWS V12.07,2013-10-07 05:47:00,
2013-10-06 22:52:00,56.0,27.3,30.02,WSW,255,0.0,0.0,33,0.00,,---,0.00,VWS V12.07,2013-10-07 05:52:00,
2013-10-06 22:57:00,56.1,27.3,30.03,WSW,255,0.0,0.0,33,0.00,,---,0.00,VWS V12.07,2013-10-07 05:57:00,
2013-10-06 23:00:00,56.1,27.3,30.03,WSW,255,0.0,0.0,33,0.00,,---,0.00,VWS V12.07,2013-10-07 06:00:00,
2013-10-06 23:02:00,56.1,27.2,30.03,WSW,255,0.0,0.0,33,0.00,,---,0.00,VWS V12.07,2013-10-07 06:02:00,
2013-10-06 23:07:00,56.0,26.5,30.02,WSW,255,0.0,0.0,32,0.00,,---,0.00,VWS V12.07,2013-10-07 06:07:00,
2013-10-06 23:12:00,56.2,25.7,30.03,WSW,255,0.0,0.0,31,0.00,,---,0.00,VWS V12.07,2013-10-07 06:12:00,
2013-10-06 23:17:00,56.3,26.0,30.03,WSW,255,0.0,0.0,31,0.00,,---,0.00,VWS V12.07,2013-10-07 06:17:00,
2013-10-06 23:22:00,56.1,26.0,30.03,WSW,255,0.0,0.0,31,0.00,,---,0.00,VWS V12.07,2013-10-07 06:22:00,
2013-10-06 23:27:00,56.0,26.4,30.03,WSW,255,0.0,0.0,32,0.00,,---,0.00,VWS V12.07,2013-10-07 06:27:00,
2013-10-06 23:30:00,56.0,26.4,30.03,WSW,255,0.0,0.0,32,0.00,,---,0.00,VWS V12.07,2013-10-07 06:30:00,
2013-10-06 23:32:00,55.6,26.7,30.03,WSW,255,0.0,0.0,33,0.00,,---,0.00,VWS V12.07,2013-10-07 06:32:00,
2013-10-06 23:37:00,55.1,26.8,30.03,WSW,255,0.0,0.0,33,0.00,,---,0.00,VWS V12.07,2013-10-07 06:37:00,
2013-10-06 23:42:00,54.6,26.9,30.03,WSW,255,0.0,0.0,34,0.00,,---,0.00,VWS V12.07,2013-10-07 06:42:00,
2013-10-06 23:47:00,54.2,27.4,30.03,WSW,255,0.0,0.0,35,0.00,,---,0.00,VWS V12.07,2013-10-07 06:47:00,
2013-10-06 23:52:00,53.8,27.4,30.03,WSW,255,0.0,0.0,36,0.00,,---,0.00,VWS V12.07,2013-10-07 06:52:00,
2013-10-06 23:57:00,53.4,27.3,30.03,WSW,255,0.0,0.0,36,0.00,,---,0.00,VWS V12.07,2013-10-07 06:57:00,